Regional Weather Roundup
Issued by NWS

Home | Current Version | Previous Version | Graphics & Text | Print | Product List | Glossary On
Versions: 1 2 3 4 5 6 7 8 9 10 11 12 13 14 15 16 17 18 19 20 21 22 23 24 25 26 27 28 29 30 31 32 33 34 35 36 37 38 39 40 41 42 43 44 45 46 47 48 49 50
000
ASUS43 KOAX 040202
RWRNE

WEATHER ROUNDUP FOR NEBRASKA
NATIONAL WEATHER SERVICE OMAHA NE
800 PM CST SAT DEC 03 2016

NOTES: SATELLITE DATA IS BEING USED TO AUGMENT CLOUD COVER ABOVE
       12000 FEET.
       "FAIR" INDICATES FEW OR NO CLOUDS BELOW 12,000 FEET WITH NO
       SIGNIFICANT WEATHER AND/OR OBSTRUCTIONS TO VISIBILITY.

  * THESE STATIONS DO NOT REPORT WEATHER SUCH AS RAIN...SNOW OR FOG.

NEZ001>004-019>022-054>056-040300-
NEBRASKA PANHANDLE

CITY           SKY/WX    TMP DP  RH WIND       PRES   REMARKS
SCOTTSBLUFF    CLOUDY    35  14  42 W13       30.00S WCI  26
ALLIANCE       CLOUDY    34  19  54 W10       29.96S WCI  26
CHADRON        CLOUDY    29  15  56 W8        29.97R WCI  21
KIMBALL        CLEAR     31  17  57 NW16G22   30.01R WCI  19
SIDNEY         CLOUDY    28  14  55 NW9       30.01R WCI  19
$$

NEZ057>060-069>072-079>082-040300-
SOUTHWEST NEBRASKA

CITY           SKY/WX    TMP DP  RH WIND       PRES   REMARKS
NORTH PLATTE   PTCLDY    34  30  85 S6        29.99S WCI  29
IMPERIAL       PTCLDY    34  25  69 W6        29.99R WCI  29
LEXINGTON      CLOUDY    33  31  93 S8        30.02S WCI  25
MCCOOK         CLOUDY    35  32  88 S7        30.02R WCI  29
OGALLALA       MOCLDY    32  15  50 NW8       29.99R WCI  25
$$

NEZ005>010-023>029-035>040-094-040300-
NORTH CENTRAL NEBRASKA

CITY           SKY/WX    TMP DP  RH WIND       PRES   REMARKS
VALENTINE      CLOUDY    28  18  66 W7        29.94S WCI  21
AINSWORTH      PTCLDY    30  19  62 SW6       29.95S WCI  24
BROKEN BOW     CLOUDY    34  31  88 S13       29.99F WCI  25
O`NEILL        CLOUDY    34  32  93 S13       29.99S WCI  25
ORD            CLOUDY    33  29  85 S8        30.02S WCI  26
THEDFORD       PTCLDY    34  16  47 CALM      29.97R
$$

NEZ041-046>049-061>064-073>077-083>087-040300-
SOUTH CENTRAL NEBRASKA

CITY           SKY/WX    TMP DP  RH WIND       PRES   REMARKS
GRAND ISLAND   CLOUDY    32  32 100 SE8       30.06F FOG     WCI  25
AURORA         CLOUDY    32  32 100 CALM      30.07S FOG
HASTINGS       CLOUDY    32  32 100 SE5       30.07S FOG     WCI  27
HEBRON         LGT SNOW  32  32 100 CALM      30.08F
HOLDREGE       CLOUDY    32  31  96 S9        30.04S WCI  24
KEARNEY *      CLOUDY    32  28  86 S7        30.05S WCI  26
YORK           LGT SNOW  32  32 100 CALM      30.08S
$$

NEZ011>018-030>034-042>045-040300-
NORTHEAST NEBRASKA

CITY           SKY/WX    TMP DP  RH WIND       PRES   REMARKS
NORFOLK        CLOUDY    32  31  96 S12       30.06F WCI  23
ALBION         CLOUDY    33  32  97 S10       30.05F FOG     WCI  24
BLAIR          LGT SNOW  33  33  98 E6        30.09F WCI  28
FREMONT        LGT SNOW  32  32 100 SE5       30.10F WCI  28
TEKAMAH        LGT SNOW  32  32 100 SE6       30.12F VSB 1   WCI  26
WAYNE          CLOUDY    33  32  97 S12       30.08S WCI  24
$$

NEZ050>053-065>068-078-088>093-040300-
SOUTHEAST NEBRASKA

CITY           SKY/WX    TMP DP  RH WIND       PRES   REMARKS
LINCOLN        LGT SNOW  33  32  96 E3        30.11S FOG
OMAHA EPPLEY   LGT SNOW  34  30  85 SE5       30.12F FOG     WCI  30
BEATRICE       LGT RAIN  34  33  98 SE7       30.07F WCI  28
FALLS CITY     LGT RAIN  38  36  92 SE6       30.11F WCI  33
NEBRASKA CITY  LGT RAIN  34  34 100 SE7       30.10F WCI  28
PLATTSMOUTH    LGT SNOW  33  32  94 SE10      30.09F WCI  25
$$

NEZ044-045-051>053-067-040300-
OMAHA AREA

CITY           SKY/WX    TMP DP  RH WIND       PRES   REMARKS
OMAHA EPPLEY   LGT SNOW  34  30  85 SE5       30.12F FOG     WCI  30
BLAIR          LGT SNOW  33  33  98 E6        30.09F WCI  28
FREMONT        LGT SNOW  32  32 100 SE5       30.10F WCI  28
MILLARD        LGT SNOW  33  32  95 CALM      30.11F
PLATTSMOUTH    LGT SNOW  33  32  94 SE10      30.09F WCI  25
WAHOO          LGT SNOW  33  32  98 SE6       30.09F WCI  27
$$




USA.gov is the U.S. government's official web portal to all federal, state and local government web resources and services.